Miscellaneous Local Product
Issued by NWS North Platte, NE

Home | Current Version | Previous Version | Graphics & Text | Print | Product List | Glossary On
Versions: 1 2 3 4 5 6 7 8 9 10 11 12 13 14 15 16 17 18 19 20 21 22 23 24 25 26 27 28 29 30 31 32 33 34 35 36 37 38 39 40 41 42 43 44 45 46 47 48 49 50
000
AXUS43 KLBF 301310
MISLBF


WESTERN AND NORTH CENTRAL NEBRASKA HOURLY WEATHER ROUNDUP
NATIONAL WEATHER SERVICE NORTH PLATTE NE
800 AM CDT SUN AUG 30 2015

NOTE: "FAIR" INDICATES FEW OR NO CLOUDS BELOW 12,000 FEET WITH NO
SIGNIFICANT WEATHER AND/OR OBSTRUCTIONS TO VISIBILITY.

NOTE: STATIONS NOT REPORTING VARIABLES SUCH AS SKY/WEATHER OR
PRESSURE ARE PROVIDED BY THE NEBRASKA DEPARTMENT OF
ROADS...RAWS...AND APRS NETWORKS...AND ARE NOT UNDER
NATIONAL WEATHER SERVICE QUALITY CONTROL.

...OBSERVATIONS IN AND NEAR THE EASTERN PANHANDLE OF NEBRASKA...

CITY           SKY/WX    TMP DP  RH WIND       PRES   REMARKS
PINE RIDGE     PTCLDY    66  43  43 VRB5      29.92S
CHADRON        CLEAR     66  43  43 S9        29.89F HAZE
ALLIANCE       PTCLDY    57  46  66 S7        29.99R
SIDNEY         CLEAR     63  45  51 SW7       30.05R
CRESCENT LAKE    N/A     64  52  65 S6          N/A
BIG SPRINGS      N/A     62  49  63 S10         N/A
$$

...OBSERVATIONS IN NORTH CENTRAL NEBRASKA...

CITY           SKY/WX    TMP DP  RH WIND       PRES   REMARKS
VALENTINE      PTCLDY    62  53  72 SW8       29.95S
THEDFORD       CLEAR     61  54  76 S6        30.01S
AINSWORTH      PTCLDY    63  55  75 S10       29.97S
O`NEILL        SUNNY     62  60  95 S7        30.00R
ORD            SUNNY     55  55 100 SE3       30.01S
BROKEN BOW     CLEAR     57  55  93 CALM      30.02S
SPRINGVIEW       N/A     60  57  89 CALM        N/A
SARGENT          N/A     56  55  97 CALM        N/A
EWING            N/A     62  58  88 CALM        N/A
$$

...OBSERVATIONS IN SOUTHWEST NEBRASKA AND FAR NORTHEAST COLORADO...

CITY           SKY/WX    TMP DP  RH WIND       PRES   REMARKS
WRAY           FAIR      64  46  52 SW6       30.06R
HOLYOKE        FAIR      59  50  72 S8        30.04F
IMPERIAL       PTCLDY    58  47  66 CALM      30.04S
OGALLALA       CLEAR     59  49  68 CALM      30.01F
NORTH PLATTE   PTCLDY    55  51  86 E3        30.03S
MCCOOK         CLEAR     55  50  83 CALM      30.05R
LEXINGTON      CLEAR     58  57  95 CALM      30.04S
PAXTON           N/A     53  49  87 CALM        N/A
BRADY            N/A     56  52  87 CALM        N/A
CALLAWAY         N/A     58  57  96 S7          N/A
$$

...OBSERVATIONS IN CENTRAL LINCOLN COUNTY AREA...

CITY           SKY/WX    TMP DP  RH WIND       PRES   REMARKS
N.P. AIRPORT   PTCLDY    55  51  86 E3        30.03S
N.P. DOWNTOWN    N/A     60  55  83 CALM        N/A
N.P. SOUTHEAST   N/A     59  53  82 CALM        N/A
$$

...SOME OBSERVATIONS FROM AROUND THE REGION...

CITY           SKY/WX    TMP DP  RH WIND       PRES   REMARKS
DENVER         MOCLDY    65  42  43 SW12      30.11R
LARAMIE        PTCLDY    51  36  56 SW7       30.23R
CHEYENNE       PTCLDY    60  39  45 W12       30.14R
SCOTTSBLUFF    PTCLDY    58  48  69 E8        29.98S
RAPID CITY     CLEAR     61  48  62 SE6       29.84S
PIERRE         CLEAR     67  56  67 S8        29.82S
WINNER         FAIR      69  55  60 S18       29.89S
SIOUX FALLS    FOG       62  61  96 S8        30.00S VSB 3/4
OMAHA          CLOUDY    63  62  97 SW6       30.05R FOG
GRAND ISLAND   CLOUDY    63  62  97 S6        30.05S FOG
KANSAS CITY    FOG       67  62  84 E7        30.04R VSB<1/4
WICHITA        FOG       63  62  97 N5        30.03R VSB 1/8
HAYS           CLOUDY    55  48  76 W3        30.07S VSB 1/4
LIBERAL        CLEAR     55  48  76 CALM      30.10S
GOODLAND       PTCLDY    62  48  60 S12       30.09R
$$



USA.gov is the U.S. government's official web portal to all federal, state and local government web resources and services.